Hourly Data Report for September 15, 2017

All times are specified in Local Standard Time (LST). Add 1 hour to adjust for Daylight Saving Time where and when it is observed.

PORT ALBERNI (AUT)
BRITISH COLUMBIA

49°18'59.700" N
124°55'36.600" W
76.20 m
1036B06
71475
WQC

Download Data

Hourly Data (September 2017)
Hourly Data Report for September 15, 2017
Temp Definition
°C
Dew Point Temp Definition
°C
Rel Hum Definition
%
Wind Dir Definition
10's deg

Wind Spd Definition
km/h
Visibility Definition
km
Stn Press Definition
kPa
Hmdx Definition


Wind Chill Definition


Weather Definition


TIME
00:00 5.8 3.3 84 31 4   100.87     LegendNANA
01:00 4.9 3.3 89 32 2   100.92     LegendNANA
02:00 3.9 2.9 93 32 2   100.96     LegendNANA
03:00 3.5 2.6 94 34 16   100.98     LegendNANA
04:00 2.6 1.7 94 31 3   101.00     LegendNANA
05:00 2.0 1.1 94 36 10   101.03     LegendNANA
06:00 2.3 1.6 95 31 5   101.05     LegendNANA
07:00 5.0 3.8 92 33 3   101.09     LegendNANA
08:00 10.2 5.0 70 34 2   101.09     LegendNANA
09:00 14.5 5.8 56 9 4   101.08     LegendNANA
10:00 17.2 3.8 41 8 2   101.02     LegendNANA
11:00 21.3 4.2 33 1 3   100.96     LegendNANA
12:00 22.5 2.6 27 28 3   100.91     LegendNANA
13:00 25.7 1.9 21 14 4   100.85     LegendNANA
14:00 25.7 -0.6 18 36 7   100.79     LegendNANA
15:00 25.3 0.8 20 11 4   100.75     LegendNANA
16:00 25.7 -0.1 18 2 8   100.74     LegendNANA
17:00 23.6 1.4 23 2 5   100.72     LegendNANA
18:00 20.2 3.6 34 26 4   100.72     LegendNANA
19:00 16.9 4.6 44 10 6   100.71     LegendNANA
20:00 15.5 3.5 45 12 6   100.74     LegendNANA
21:00 12.8 4.3 56 13 6   100.74     LegendNANA
22:00 10.4 4.0 64 28 6   100.75     LegendNANA
23:00 9.7 5.1 73 32 3   100.77     LegendNANA

Notes on Data Quality.

Legend

  • E = Estimated
  • M = Missing
  • NA = Not Available
  • ‡ = Partner data that is not subject to review by the National Climate Archives
Date modified: